sat.trackr.live / text

‹ back to catalog

STARLINK-6041

NORAD 56478 · 2023-064AG

PAYLOAD ACTIVE UNKNOWN

§ Identity

Operator
Country
US
Launch date
2023-05-10
Launch site
AFWTR
Launch vehicle
Mass (kg)
RCS (m²)

Purposes: comms

External: N2YO · Heavens-Above · Gunter

§ Orbital elements

Epoch: 2026-05-24T19:47:26.580480Z

Period
96.11 min
Inclination
69.9987°
Eccentricity
0.0002779
Mean motion
14.98331077 rev/d
Perigee alt
570.1 km
Apogee alt
574.0 km
Semi-major
6,950.2 km
B*
3.6727e-5
RAAN
292.4865°
Arg perigee
266.1166°
Mean anomaly
93.9675°
Rev number
16,714

§ Raw data

STARLINK-60411 56478U 23064AG  26144.82461320  .00000345  00000+0  36727-4 0  99982 56478  69.9987 292.4865 0002779 266.1166  93.9675 14.98331077167140

JSON: /api/v1/satellites/56478 · /tle

For live sub-satellite position, see the globe view (requires WebGL).

§ Visibility from observer

Set your observer location to see the next 7 days of passes ≥ 10°. The values pass through the URL so the page stays shareable.

No JS? Fill the form by hand. The geolocation button needs JavaScript.